Wind_Speed
46 45 44 43 43 43 43 42 43 42 42 41 39 37 37 37 37 37 37 36 35 35 34 34 34 34 34 35 35 36 37 37 38 40 42 43 44 45 47 48 49 50 51
50 49 48 46 45 44 44 43 43 43 43 42 41 39 38 38 37 37 37 36 35 35 36 36 36 36 36 37 38 39 39 39 40 42 44 46 47 48 50 51 52 53 54
51 51 50 49 46 46 45 44 43 43 44 43 42 40 38 38 37 37 37 36 36 37 37 37 37 38 38 39 40 41 42 42 43 45 46 48 49 50 50 53 55 56 57
52 52 52 50 48 47 46 45 44 44 44 43 42 41 39 38 37 37 37 37 37 37 37 38 38 39 40 41 42 43 44 45 46 47 49 50 52 53 52 52 54 57 59
54 53 53 52 50 49 47 46 45 44 44 43 42 41 39 37 37 37 37 37 38 38 38 39 40 41 42 43 44 44 45 47 48 50 51 52 54 56 57 56 56 58 60
56 54 54 53 52 51 50 48 45 43 43 43 42 40 38 37 37 37 37 37 38 38 39 40 41 42 43 44 44 45 46 48 50 52 53 55 57 58 60 61 61 62 63
58 57 55 54 53 52 50 48 45 43 42 42 41 40 39 38 37 37 37 38 38 39 40 41 42 42 43 44 45 46 48 50 52 54 56 58 59 61 63 65 66 66 67
55 57 56 54 54 52 50 48 45 43 42 41 40 39 38 37 37 37 37 38 39 39 40 41 42 43 43 44 45 47 49 52 54 56 58 60 62 64 66 68 69 70 70
53 56 56 54 54 52 50 48 45 44 43 41 40 39 38 37 37 38 38 38 39 39 40 41 42 43 43 44 46 49 51 54 56 58 60 62 64 66 68 69 71 73 74
50 53 55 54 53 51 50 48 46 45 44 42 41 39 38 37 37 38 38 38 38 39 40 41 41 42 43 45 48 51 53 56 58 60 62 64 66 68 70 72 73 74 75
46 50 54 53 51 50 49 48 46 45 44 42 40 39 37 37 37 37 38 38 38 39 40 41 41 42 44 47 50 53 56 58 60 62 64 66 68 70 72 73 74 75 77
43 48 51 51 50 48 47 46 45 45 43 42 40 38 37 37 37 38 38 38 39 39 40 40 42 44 46 49 53 55 57 59 62 64 66 68 70 71 72 74 75 78 81
40 45 49 48 47 45 45 44 44 43 42 41 39 37 37 37 37 38 38 39 39 39 40 41 43 46 49 52 54 57 59 61 63 65 67 69 71 72 73 75 78 81 85
36 42 45 45 44 43 43 43 42 42 40 39 37 37 36 37 37 38 38 39 39 39 40 42 45 48 51 53 56 58 60 63 65 67 69 70 71 73 75 78 82 87 91
35 39 41 41 40 40 40 41 40 39 38 36 36 35 36 36 37 37 38 38 38 39 41 44 47 50 53 55 57 59 62 64 66 68 69 71 73 75 79 84 88 93 96
33 36 37 37 37 37 37 37 37 36 35 34 34 34 34 35 36 36 36 37 38 41 43 46 49 52 54 56 59 61 63 65 67 68 70 72 75 79 84 89 93 96 97
29 32 33 33 33 32 32 33 33 32 32 32 32 32 33 33 34 34 35 37 40 42 45 48 50 53 55 58 60 62 64 66 67 69 72 75 79 84 89 92 95 95 92
26 28 29 29 29 29 29 29 29 29 29 29 29 30 30 31 32 34 36 38 41 44 46 49 52 54 57 59 61 63 64 66 68 72 75 80 85 90 93 93 92 87 80
22 23 23 24 24 24 24 24 24 25 25 25 26 27 28 30 32 34 37 39 42 45 47 50 53 55 58 60 62 63 65 67 70 75 80 85 90 92 93 90 84 75 64
18 18 18 19 19 20 20 21 21 21 22 23 24 25 27 29 32 35 37 40 43 46 49 51 54 56 58 60 62 64 66 69 74 79 85 90 92 92 88 81 70 59 50
15 16 16 16 16 16 16 17 18 19 20 21 23 25 27 30 33 36 38 41 44 47 50 52 55 57 58 60 63 66 70 74 79 84 89 91 90 84 76 66 55 47 40
12 13 13 13 13 14 14 15 16 17 19 20 23 25 28 31 34 37 40 42 45 48 50 53 55 57 59 61 65 70 75 80 84 88 90 87 80 71 61 52 44 39 35
10 10 10 10 11 11 12 13 15 16 18 21 23 26 29 32 35 38 41 44 46 49 50 52 54 57 60 64 68 74 79 84 87 88 84 76 66 56 48 42 37 34 34
7 8 8 9 9 10 11 12 14 16 19 22 25 28 31 34 37 40 42 45 47 49 51 52 55 58 63 68 72 77 82 85 85 80 71 61 52 45 39 35 33 33 33
6 6 7 7 8 9 11 13 16 18 21 24 27 30 33 35 38 41 43 45 47 49 51 54 57 62 66 72 77 81 84 84 78 68 57 48 41 36 33 32 32 32 33
5 6 7 7 9 10 13 15 18 20 23 26 29 31 34 37 39 41 44 46 48 50 53 57 62 67 72 76 80 83 82 76 65 53 43 37 33 31 30 30 31 32 32
Wind_Direction
253 250 247 243 242 242 242 243 244 246 248 250 252 254 256 257 257 257 257 257 257 257 258 259 261 265 269 274 278 282 285 287 288 290 291 292 292 293 293 294 293 292 291
251 249 247 244 242 241 242 242 244 245 247 249 251 253 255 256 257 258 258 259 259 258 258 259 262 266 270 275 278 282 285 287 288 290 291 292 293 294 295 295 294 293 292
249 247 246 244 242 240 241 242 243 245 246 249 251 252 253 255 256 257 258 259 259 259 260 261 264 268 272 276 279 282 285 287 288 290 291 292 292 293 294 295 295 295 294
247 245 244 242 240 239 239 240 242 244 246 248 250 251 253 253 254 255 257 258 260 261 262 263 266 270 273 277 280 283 285 287 289 290 291 292 293 293 293 292 292 292 293
247 243 241 239 238 236 236 237 240 242 244 246 249 251 253 254 254 255 257 259 261 262 263 265 268 271 275 278 281 284 286 288 289 291 293 294 294 295 295 295 293 293 292
247 242 239 237 235 234 234 235 236 239 242 244 247 250 252 253 254 255 257 259 261 263 265 267 270 273 276 279 282 285 287 288 290 292 294 295 296 296 296 296 295 294 294
245 242 237 235 234 233 232 233 234 236 239 242 245 248 251 253 255 256 257 260 262 264 266 269 272 275 277 281 283 286 288 290 292 294 296 297 297 297 297 297 297 297 296
243 240 236 233 231 230 230 231 232 233 236 240 243 246 250 253 255 257 258 260 262 265 268 271 274 277 280 283 285 288 290 292 294 296 297 298 298 298 298 298 298 298 298
241 237 233 230 228 227 227 228 229 230 233 237 241 244 249 252 255 257 259 261 264 267 271 273 276 280 282 285 287 290 292 295 296 298 298 299 299 299 299 300 300 300 300
239 233 229 226 224 223 224 224 225 227 230 234 238 243 247 252 255 258 260 263 266 270 273 276 279 282 284 287 290 292 295 297 298 299 299 300 300 300 301 302 302 302 302
234 227 223 221 220 220 220 221 223 225 229 233 238 242 248 252 256 259 262 265 269 273 276 279 282 284 287 290 292 295 297 298 299 299 300 301 301 302 303 303 303 303 303
227 220 216 214 215 215 216 218 220 224 228 232 237 242 247 252 256 260 264 268 272 276 279 281 284 286 289 292 294 296 298 299 300 301 302 302 303 304 304 304 305 305 305
216 211 207 207 208 210 212 215 218 222 227 232 237 243 248 253 257 262 266 271 275 278 280 283 286 289 292 294 296 298 299 300 301 302 303 304 305 305 305 306 306 306 306
203 199 197 199 202 205 208 212 216 221 226 232 238 244 250 255 259 264 269 273 276 279 282 286 289 291 294 296 297 299 300 302 303 304 305 306 306 306 307 307 307 307 307
191 188 189 192 197 201 206 210 215 220 226 233 239 246 252 256 261 266 270 274 277 281 285 288 291 293 295 297 299 301 302 303 304 305 306 307 307 308 308 308 308 308 308
178 179 182 187 192 198 204 209 215 221 228 235 242 248 253 258 263 267 271 275 280 284 287 290 293 295 297 299 301 302 303 304 306 306 307 308 308 309 309 309 309 309 310
167 171 177 182 188 195 202 209 216 223 230 238 244 249 254 259 264 269 273 279 283 287 290 293 295 297 299 301 302 304 305 306 307 308 308 309 309 310 310 310 310 311 311
157 164 172 180 187 195 203 211 218 225 233 239 244 249 255 261 267 272 278 283 287 290 293 295 297 299 301 303 304 305 307 308 308 309 310 310 311 311 311 311 312 311 311
151 161 170 179 188 196 204 212 219 226 233 239 246 252 259 266 272 278 282 286 290 293 295 297 299 301 303 304 306 307 308 309 310 310 311 311 312 312 312 312 313 313 312
150 158 167 177 186 195 204 212 220 228 236 244 252 259 266 273 278 283 287 290 293 295 297 299 301 303 304 306 307 308 309 310 311 311 312 313 313 314 314 314 314 314 313
156 163 171 180 190 199 208 218 227 236 245 253 261 268 274 279 284 287 290 293 295 297 300 302 303 305 306 308 309 310 311 312 313 313 313 314 314 314 314 315 315 315 313
166 172 181 190 199 209 219 229 239 248 257 265 271 276 281 285 288 291 293 295 298 300 302 304 306 307 309 310 311 312 313 313 314 314 315 315 314 314 314 315 315 315 314
181 186 194 204 214 223 235 247 255 263 269 274 279 283 286 289 291 294 297 299 301 302 304 306 308 309 311 312 313 313 314 314 315 315 315 315 315 315 315 316 316 316 315
194 204 214 223 234 245 254 263 269 274 278 283 286 288 291 293 296 298 300 302 303 305 307 309 310 311 312 312 313 314 314 315 316 316 315 315 315 315 316 317 318 318 318
208 219 231 242 252 261 268 275 280 284 287 290 292 294 296 298 300 302 303 305 306 308 309 310 311 312 312 313 314 315 316 317 317 317 316 316 316 318 320 321 322 323 323
229 238 247 257 269 277 283 287 290 292 294 296 297 299 300 302 303 305 306 308 309 311 311 312 313 314 314 315 316 317 318 318 318 317 317 317 319 321 323 325 326 327 327
Height
5728 5730 5733 5736 5739 5742 5745 5748 5750 5752 5753 5755 5757 5759 5760 5761 5762 5762 5762 5762 5763 5763 5763 5762 5762 5761 5760 5759 5757 5756 5754 5751 5748 5745 5742 5739 5736 5732 5729 5725 5722 5718 5714
5715 5718 5721 5725 5729 5733 5736 5739 5742 5744 5746 5747 5749 5751 5752 5753 5754 5755 5755 5755 5756 5755 5755 5755 5754 5753 5752 5751 5749 5748 5745 5743 5740 5737 5733 5730 5727 5723 5718 5714 5710 5706 5702
5702 5705 5709 5713 5718 5723 5727 5730 5733 5735 5737 5739 5741 5743 5744 5745 5746 5747 5748 5748 5748 5748 5747 5747 5746 5745 5744 5743 5741 5739 5736 5734 5731 5727 5724 5721 5717 5714 5709 5703 5697 5692 5688
5688 5692 5696 5701 5707 5712 5716 5721 5724 5726 5729 5731 5733 5735 5737 5738 5739 5739 5740 5740 5741 5740 5740 5739 5738 5737 5736 5734 5732 5729 5727 5724 5721 5717 5713 5710 5705 5702 5700 5696 5689 5683 5676
5673 5678 5683 5688 5694 5699 5704 5709 5713 5717 5720 5723 5725 5727 5729 5731 5731 5732 5732 5733 5733 5733 5732 5731 5730 5729 5727 5725 5723 5720 5717 5713 5710 5706 5702 5698 5693 5688 5684 5682 5677 5671 5665
5658 5664 5669 5675 5681 5686 5692 5698 5703 5707 5711 5714 5717 5720 5722 5722 5723 5724 5725 5725 5725 5725 5724 5723 5721 5720 5718 5715 5713 5710 5706 5703 5699 5694 5690 5685 5681 5675 5670 5665 5661 5656 5650
5642 5649 5656 5662 5669 5675 5682 5688 5694 5698 5702 5706 5709 5712 5714 5715 5716 5716 5717 5717 5717 5717 5716 5715 5713 5711 5708 5706 5703 5699 5696 5692 5687 5683 5678 5672 5667 5661 5655 5649 5644 5638 5633
5626 5633 5641 5649 5656 5664 5671 5678 5684 5689 5694 5698 5701 5704 5706 5708 5709 5709 5710 5710 5710 5709 5708 5706 5704 5701 5699 5696 5692 5689 5685 5680 5676 5670 5665 5659 5653 5647 5640 5633 5627 5621 5616
5610 5618 5626 5635 5644 5652 5660 5668 5674 5680 5685 5689 5693 5696 5698 5700 5701 5702 5702 5702 5701 5700 5699 5697 5695 5692 5689 5685 5682 5678 5673 5669 5663 5658 5652 5645 5639 5632 5624 5617 5609 5601 5595
5594 5602 5612 5622 5632 5641 5649 5657 5664 5670 5676 5681 5685 5688 5691 5693 5694 5695 5695 5694 5693 5692 5690 5688 5685 5682 5679 5675 5671 5667 5662 5656 5651 5645 5638 5631 5624 5616 5608 5600 5592 5582 5574
5579 5588 5598 5610 5621 5630 5640 5648 5655 5662 5668 5673 5677 5681 5684 5685 5687 5687 5687 5686 5685 5683 5681 5679 5676 5672 5669 5665 5660 5655 5650 5644 5638 5631 5624 5616 5608 5600 5591 5582 5574 5564 5554
5565 5575 5586 5599 5611 5622 5632 5641 5648 5655 5660 5665 5670 5673 5676 5678 5679 5680 5679 5678 5677 5675 5672 5669 5666 5663 5659 5654 5649 5644 5638 5631 5624 5617 5609 5601 5592 5583 5574 5564 5555 5545 5535
5554 5565 5577 5591 5604 5615 5625 5634 5641 5648 5654 5659 5663 5667 5669 5671 5672 5672 5671 5670 5668 5666 5663 5660 5657 5653 5648 5643 5638 5632 5625 5618 5610 5602 5594 5585 5576 5566 5557 5547 5536 5526 5514
5549 5560 5572 5586 5599 5609 5619 5628 5635 5642 5648 5653 5657 5660 5662 5664 5664 5664 5663 5662 5660 5657 5654 5651 5647 5642 5637 5632 5626 5619 5612 5604 5596 5587 5578 5569 5559 5549 5539 5529 5517 5505 5492
5548 5559 5571 5584 5596 5606 5615 5623 5631 5637 5643 5648 5651 5654 5656 5657 5657 5656 5655 5653 5651 5648 5645 5641 5636 5631 5626 5620 5613 5607 5599 5590 5581 5572 5562 5553 5542 5532 5520 5509 5496 5482 5467
5551 5561 5573 5585 5595 5604 5613 5621 5627 5634 5639 5643 5646 5648 5649 5649 5649 5648 5647 5645 5642 5639 5635 5631 5626 5620 5614 5608 5600 5593 5585 5576 5566 5557 5547 5537 5526 5515 5503 5489 5474 5457 5441
5557 5567 5577 5586 5595 5604 5611 5618 5625 5630 5634 5637 5640 5641 5642 5642 5642 5641 5639 5637 5633 5630 5625 5621 5615 5609 5602 5595 5587 5579 5570 5561 5551 5541 5531 5521 5509 5496 5483 5469 5453 5435 5416
5566 5573 5581 5589 5597 5604 5611 5617 5622 5626 5630 5632 5634 5635 5636 5635 5634 5633 5631 5628 5624 5620 5615 5610 5604 5597 5589 5582 5574 5565 5556 5546 5536 5526 5515 5503 5490 5475 5461 5448 5432 5415 5398
5573 5579 5586 5592 5599 5605 5610 5615 5619 5623 5625 5627 5628 5629 5629 5628 5627 5625 5622 5619 5615 5610 5605 5598 5592 5584 5577 5569 5560 5551 5542 5533 5522 5511 5498 5484 5471 5456 5440 5426 5411 5396 5382
5580 5585 5590 5595 5600 5605 5609 5613 5616 5619 5621 5622 5623 5623 5622 5621 5619 5617 5613 5610 5605 5599 5593 5587 5580 5572 5564 5556 5547 5538 5529 5519 5508 5495 5479 5464 5448 5432 5415 5402 5391 5380 5370
5585 5589 5593 5597 5601 5604 5608 5611 5613 5615 5616 5617 5617 5617 5615 5614 5611 5608 5604 5600 5595 5589 5583 5576 5568 5561 5552 5543 5533 5523 5512 5501 5489 5475 5460 5444 5427 5412 5397 5385 5376 5367 5360
5588 5591 5594 5597 5600 5603 5606 5608 5610 5611 5611 5612 5611 5610 5608 5606 5603 5599 5595 5590 5584 5578 5571 5564 5555 5547 5538 5529 5519 5508 5495 5482 5470 5455 5439 5424 5409 5395 5383 5374 5366 5358 5352
5591 5593 5595 5597 5600 5602 5604 5605 5606 5606 5607 5606 5605 5603 5601 5598 5594 5590 5585 5580 5574 5567 5560 5552 5544 5535 5526 5516 5505 5493 5480 5465 5451 5436 5420 5405 5392 5382 5372 5364 5358 5351 5345
5591 5593 5595 5597 5598 5600 5601 5602 5602 5602 5601 5600 5599 5596 5593 5590 5585 5580 5575 5569 5563 5556 5548 5541 5532 5523 5513 5503 5491 5479 5465 5450 5434 5418 5404 5391 5380 5371 5364 5357 5351 5344 5338
5591 5593 5594 5595 5596 5597 5598 5598 5598 5597 5596 5594 5592 5589 5585 5581 5576 5570 5565 5558 5552 5544 5537 5529 5520 5511 5501 5488 5475 5461 5446 5431 5416 5402 5390 5380 5371 5364 5357 5351 5344 5338 5331
5590 5591 5592 5593 5594 5594 5594 5594 5593 5592 5590 5587 5584 5580 5576 5572 5566 5560 5554 5547 5540 5533 5525 5516 5506 5495 5484 5471 5457 5442 5426 5412 5400 5389 5379 5371 5364 5358 5351 5345 5338 5332 5325